This demonstration page uses our WeatherBlox Daily Observations layout. Learn more.

Left ArrowRight Arrow

34.02893, -84.19858

Hourly Observations for November 20, 2016

Temp ( °F °C ) Dew Point ( °F °C ) Humidity (%) Winds ( mph kmh ) Pressure ( in mb ) Visibility ( mi km ) Precip ( " mm )
12:53 am 00:53 Clear with Smoke 42 5.6 18 -7.8 38 38 NW 16 26 30.24 1024 10 16 0.00 0.00
1:53 am 01:53 Clear with Smoke 41 5 19 -7.2 41 41 NW 13 20 30.23 1024 10 16 0.00 0.00
2:53 am 02:53 Clear with Smoke 40 4.4 18 -7.8 41 41 NW 15 24 30.24 1024 10 16 0.00 0.00
3:53 am 03:53 Clear with Smoke 39 3.9 18 -7.8 43 43 NW 14 22 30.23 1024 10 16 0.00 0.00
4:53 am 04:53 Clear with Smoke 38 3.3 18 -7.8 44 44 NW 14 22 30.24 1024 10 16 0.00 0.00
5:53 am 05:53 Clear with Smoke 37 2.8 16 -8.9 42 42 NW 12 19 30.25 1024 10 16 0.00 0.00
6:53 am 06:53 Clear with Smoke 36 2.2 15 -9.4 42 42 NNW 15 24 30.25 1024 10 16 0.00 0.00
7:53 am 07:53 Sunny with Smoke 37 2.8 15 -9.4 41 41 NW 12 19 30.26 1025 10 16 0.00 0.00
8:53 am 08:53 Sunny with Smoke 40 4.4 16 -8.9 38 38 WNW 10 17 30.27 1025 10 16 0.00 0.00
9:53 am 09:53 Sunny with Smoke 43 6.1 14 -10 31 31 NW 10 17 30.27 1025 10 16 0.00 0.00
10:53 am 10:53 Sunny with Smoke 45 7.2 13 -10.6 27 27 NW 15 24 30.27 1025 10 16 0.00 0.00
11:53 am 11:53 Sunny with Smoke 49 9.4 11 -11.7 21 21 WNW 9 15 30.24 1024 10 16 0.00 0.00
12:53 pm 12:53 Sunny with Smoke 50 10 10 -12.2 20 20 WNW 15 24 30.22 1023 10 16 0.00 0.00
1:53 pm 13:53 Sunny with Smoke 53 11.7 9 -12.8 17 17 WNW 14 22 30.20 1023 10 16 0.00 0.00
2:53 pm 14:53 Sunny with Smoke 53 11.7 7 -13.9 15 15 WNW 17 28 30.19 1022 10 16 0.00 0.00
3:53 pm 15:53 Sunny 52 11.1 8 -13.3 17 17 WNW 16 26 30.19 1023 10 16 0.00 0.00
4:53 pm 16:53 Sunny 51 10.6 9 -12.8 18 18 WNW 13 20 30.20 1023 10 16 0.00 0.00
5:53 pm 17:53 Clear 48 8.9 10 -12.2 21 21 NW 10 17 30.21 1023 10 16 0.00 0.00
6:53 pm 18:53 Clear 46 7.8 12 -11.1 25 25 WNW 7 11 30.21 1023 10 16 0.00 0.00
7:53 pm 19:53 Clear 45 7.2 13 -10.6 27 27 WNW 8 13 30.20 1023 10 16 0.00 0.00
8:53 pm 20:53 Clear 44 6.7 13 -10.6 28 28 NW 9 15 30.20 1023 10 16 0.00 0.00
9:53 pm 21:53 Clear 43 6.1 12 -11.1 28 28 NW 13 20 30.19 1022 10 16 0.00 0.00
10:53 pm 22:53 Clear 42 5.6 12 -11.1 29 29 NW 10 17 30.18 1022 10 16 0.00 0.00
11:53 pm 23:53 Clear 41 5 13 -10.6 32 32 NW 12 19 30.16 1022 10 16 0.00 0.00

Powered by AerisWeather